Location: Arrien
(42.8963°N, 1.0429°E)
Time: 14:29:41
(UTC+00:00)

Gurwin Techsat 1B - Visible Passes

Search period start: 11 April 2026 00:00
Search period end: 21 April 2026 00:00
Orbit: 809 x 812 km, 99.0° (Epoch: 11 April)

Date Brightness Start Highest point End Pass type
(mag) Time Alt. Az. Time Alt. Az. Time Alt. Az.
12 Apr 9.7 04:47:08 10° NNE 04:52:18 50° E 04:57:26 10° S visible
13 Apr 10.6 04:23:55 10° NE 04:28:35 31° E 04:33:14 10° SSE visible
14 Apr 11.3 04:01:03 10° NE 04:04:48 19° E 04:08:31 10° SE visible
15 Apr 11.7 03:39:20 10° ENE 03:40:54 11° E 03:42:30 10° ESE visible
17 Apr 10.4 04:29:20 10° NNE 04:34:09 34° E 04:38:56 10° SSE visible
18 Apr 11.2 04:06:23 10° NE 04:10:23 21° E 04:14:20 10° SE visible
19 Apr 11.5 03:44:14 10° ENE 03:46:30 13° E 03:48:47 10° ESE visible
